DUPLEX

Last updated on Mon Sep 21 2026 00:02:05 GMT+0000 (Coordinated Universal Time)

1 66906U 98067XS 26263.44528220 .00047677 00000+0 38810-3 0 9996 2 66906 51.6251 165.8431 0004469 164.3050 195.8086 15.70157063 45583
UTC large
Height (km)
Speed (km/s)
/
Latitude / Longitude
Inclination (degrees)
Orbital Period (minutes)
Azimuth
Elevation
Range (km)
Doppler Factor

Next 0 passes for location: London (51.5072 / 0.1276)

No passes found over London.
DUPLEX